Location: Newark
(42.8802°N, 9.1853°W)
Time: 05:09:02
(UTC+00:00)

Envisat - Visible Passes

Search period start: 22 November 2019 00:00
Search period end: 02 December 2019 00:00
Orbit: 764 x 766 km, 98.1° (Epoch: 21 November)

Date Brightness Start Highest point End Pass type
(mag) Time Alt. Az. Time Alt. Az. Time Alt. Az.
22 Nov 3.2 18:45:25 10° S 18:50:29 72° WSW 18:55:35 10° NNW visible
23 Nov 4.8 06:53:39 10° NNE 06:58:22 37° E 07:03:03 10° SSE visible
23 Nov 3.1 18:08:51 10° SSE 18:13:46 53° ENE 18:18:43 10° N visible
23 Nov 5.6 19:49:33 10° SW 19:53:06 19° W 19:56:40 10° NW visible
24 Nov 6.0 06:17:59 10° NE 06:21:17 17° E 06:24:35 10° SE visible
24 Nov 3.9 17:33:09 10° ESE 17:37:15 26° ENE 17:41:23 10° N visible
24 Nov 4.3 19:11:17 10° SSW 19:16:03 41° W 19:20:51 10° NNW visible
25 Nov 3.0 18:34:07 10° SSE 18:39:12 89° W 18:44:19 10° NNW visible
25 Nov 6.2 20:18:04 10° W 20:18:55 10° W 20:19:46 10° WNW visible
26 Nov 5.2 06:42:35 10° NE 06:47:01 29° E 06:51:25 10° SSE visible
26 Nov 3.3 17:57:47 10° SE 18:02:32 42° ENE 18:07:19 10° N visible
26 Nov 5.3 19:37:41 10° SSW 19:41:43 24° W 19:45:48 10° NW visible
27 Nov 6.1 06:07:25 10° ENE 06:09:53 13° E 06:12:20 10° ESE visible
27 Nov 3.8 18:59:48 10° S 19:04:44 52° W 19:09:42 10° NNW visible
28 Nov 4.1 07:07:41 10° NNE 07:12:39 51° E 07:17:34 10° S visible
28 Nov 2.9 18:22:53 10° SSE 18:27:56 73° ENE 18:33:01 10° N visible
28 Nov 6.0 20:05:00 10° WSW 20:07:30 14° W 20:10:00 10° WNW visible
29 Nov 5.6 06:31:36 10° NE 06:35:40 24° E 06:39:41 10° SE visible
29 Nov 3.6 17:46:49 10° SE 17:51:21 34° ENE 17:55:54 10° N visible
29 Nov 4.9 19:25:57 10° SSW 19:30:21 30° W 19:34:48 10° NW visible
30 Nov 6.5 05:57:46 10° E 05:58:27 10° E 05:59:08 10° E visible
30 Nov 3.4 18:48:24 10° S 18:53:25 66° WSW 18:58:30 10° NNW visible
01 Dec 4.6 06:56:32 10° NNE 07:01:20 40° E 07:06:05 10° SSE visible
01 Dec 3.0 18:11:44 10° SSE 18:16:42 58° ENE 18:21:41 10° N visible
01 Dec 5.7 19:52:47 10° SW 19:56:05 17° W 19:59:25 10° NW visible
